Location: Limerick
(52.6650°N, 8.6230°W)
Time: 02:52:19
(UTC+01:00)

Envisat - Visible Passes

Search period start: 29 May 2017 00:00
Search period end: 08 June 2017 00:00
Orbit: 764 x 766 km, 98.2° (Epoch: 27 May)

Date Brightness Start Highest point End Pass type
(mag) Time Alt. Az. Time Alt. Az. Time Alt. Az.
30 May 5.7 23:17:32 10° WSW 23:19:24 12° W 23:21:16 10° WNW visible
31 May 5.2 22:38:09 10° SW 22:42:09 23° W 22:46:12 10° NW visible
02 Jun 5.6 23:05:22 10° WSW 23:08:08 15° W 23:10:56 10° NW visible
05 Jun 5.5 22:53:30 10° SW 22:56:54 18° W 23:00:19 10° NW visible
07 Jun 5.8 23:21:42 10° W 23:22:56 11° W 23:24:11 10° WNW visible
